| time (UTC) | temp F | wind direction | speed MPH | gust MPH | rain 1hr in | rain 24hr in | rain mn in | humidity % | barometer mb |
| 20260905211805 | 77 | 207 | 0.0 | 1.0 | 0.00 | 0.00 | 0.00 | 58 | 1018.8 |
| 20260905210759 | 77 | 207 | 0.0 | 2.0 | 0.00 | 0.00 | 0.00 | 58 | 1018.8 |
| 20260905205801 | 77 | 207 | 0.0 | 2.0 | 0.00 | 0.00 | 0.00 | 57 | 1018.7 |
| 20260905204756 | 77 | 173 | 0.0 | 2.0 | 0.00 | 0.00 | 0.00 | 57 | 1018.7 |
| 20260905203755 | 78 | 185 | 2.0 | 4.0 | 0.00 | 0.00 | 0.00 | 57 | 1018.7 |
| 20260905202753 | 78 | 128 | 2.0 | 5.0 | 0.00 | 0.00 | 0.00 | 57 | 1018.6 |
| 20260905202453 | 78 | 140 | 2.0 | 6.0 | 0.00 | 0.00 | 0.00 | 56 | 1018.7 |
| 20260905201430 | 78 | 204 | 2.0 | 4.0 | 0.00 | 0.00 | 0.00 | 56 | 1018.7 |
| 20260905195749 | 78 | 193 | 1.0 | 4.0 | 0.00 | 0.00 | 0.00 | 55 | 1018.6 |
| 20260905194749 | 79 | 151 | 1.0 | 4.0 | 0.00 | 0.00 | 0.00 | 54 | 1018.6 |
| 20260905193747 | 79 | 111 | 1.0 | 3.0 | 0.00 | 0.00 | 0.00 | 54 | 1018.5 |
| 20260905192747 | 80 | 238 | 0.0 | 5.0 | 0.00 | 0.00 | 0.00 | 53 | 1018.5 |
| 20260905191747 | 80 | 113 | 2.0 | 6.0 | 0.00 | 0.00 | 0.00 | 52 | 1018.5 |
| 20260905191312 | 81 | 125 | 2.0 | 6.0 | 0.00 | 0.00 | 0.00 | 50 | 1018.3 |
| 20260905190926 | 80 | 182 | 0.0 | 3.0 | 0.00 | 0.00 | 0.00 | 51 | 1018.4 |
| 20260905184751 | 81 | 109 | 3.0 | 6.0 | 0.00 | 0.00 | 0.00 | 50 | 1018.2 |
| 20260905184454 | 81 | 120 | 4.0 | 6.0 | 0.00 | 0.00 | 0.00 | 50 | 1018.2 |
| 20260905182745 | 82 | 85 | 3.0 | 7.0 | 0.00 | 0.00 | 0.00 | 49 | 1018.1 |
| 20260905181744 | 82 | 94 | 5.0 | 7.0 | 0.00 | 0.00 | 0.00 | 49 | 1017.9 |
| 20260905180744 | 82 | 93 | 5.0 | 7.0 | 0.00 | 0.00 | 0.00 | 48 | 1017.9 |
| 20260905175742 | 83 | 89 | 5.0 | 10.0 | 0.00 | 0.00 | 0.00 | 48 | 1017.8 |
| 20260905175235 | 83 | 92 | 4.0 | 7.0 | 0.00 | 0.00 | 0.00 | 46 | 1017.6 |
| 20260905174903 | 83 | 100 | 5.0 | 9.0 | 0.00 | 0.00 | 0.00 | 47 | 1017.7 |
| 20260905172741 | 84 | 94 | 4.0 | 10.0 | 0.00 | 0.00 | 0.00 | 46 | 1017.4 |
| 20260905171742 | 84 | 90 | 7.0 | 11.0 | 0.00 | 0.00 | 0.00 | 46 | 1017.4 |
| 20260905170737 | 85 | 96 | 6.0 | 11.0 | 0.00 | 0.00 | 0.00 | 46 | 1017.4 |
| 20260905170244 | 85 | 86 | 5.0 | 12.0 | 0.00 | 0.00 | 0.00 | 45 | 1017.4 |
| 20260905165851 | 85 | 106 | 6.0 | 11.0 | 0.00 | 0.00 | 0.00 | 45 | 1017.4 |
| 20260905163739 | 86 | 69 | 8.0 | 13.0 | 0.00 | 0.00 | 0.00 | 44 | 1017.2 |
| 20260905162736 | 86 | 94 | 5.0 | 9.0 | 0.00 | 0.00 | 0.00 | 45 | 1017.3 |
| 20260905161736 | 87 | 92 | 4.0 | 10.0 | 0.00 | 0.00 | 0.00 | 44 | 1017.3 |
| 20260905160733 | 87 | 123 | 7.0 | 10.0 | 0.00 | 0.00 | 0.00 | 43 | 1017.2 |
| 20260905160259 | 88 | 76 | 3.0 | 10.0 | 0.00 | 0.00 | 0.00 | 43 | 1017.2 |
| 20260905155900 | 88 | 99 | 3.0 | 10.0 | 0.00 | 0.00 | 0.00 | 43 | 1017.3 |
| 20260905153732 | 88 | 75 | 5.0 | 10.0 | 0.00 | 0.00 | 0.00 | 41 | 1017.2 |
| 20260905152734 | 88 | 30 | 4.0 | 12.0 | 0.00 | 0.00 | 0.00 | 40 | 1017.2 |
| 20260905151737 | 88 | 94 | 4.0 | 13.0 | 0.00 | 0.00 | 0.00 | 42 | 1017.1 |
| 20260905151425 | 88 | 42 | 5.0 | 14.0 | 0.00 | 0.00 | 0.00 | 41 | 1017.2 |
| 20260905150437 | 88 | 69 | 6.0 | 13.0 | 0.00 | 0.00 | 0.00 | 42 | 1017.2 |
| 20260905145416 | 88 | 51 | 8.0 | 14.0 | 0.00 | 0.00 | 0.00 | 42 | 1017.2 |
| 20260905144419 | 88 | 58 | 8.0 | 16.0 | 0.00 | 0.00 | 0.00 | 42 | 1017.3 |
| 20260905142729 | 89 | 87 | 5.0 | 13.0 | 0.00 | 0.00 | 0.00 | 41 | 1017.3 |
| 20260905141731 | 89 | 62 | 7.0 | 15.0 | 0.00 | 0.00 | 0.00 | 41 | 1017.3 |
| 20260905140727 | 90 | 319 | 7.0 | 12.0 | 0.00 | 0.00 | 0.00 | 40 | 1017.2 |
| 20260905135728 | 90 | 17 | 7.0 | 16.0 | 0.00 | 0.00 | 0.00 | 40 | 1017.3 |
| 20260905134729 | 91 | 55 | 7.0 | 14.0 | 0.00 | 0.00 | 0.00 | 39 | 1017.3 |
| 20260905133725 | 92 | 20 | 7.0 | 15.0 | 0.00 | 0.00 | 0.00 | 38 | 1017.4 |
| 20260905132728 | 94 | 25 | 5.0 | 12.0 | 0.00 | 0.00 | 0.00 | 35 | 1017.5 |
| 20260905132408 | 98 | 305 | 6.0 | 10.0 | 0.00 | 0.00 | 0.00 | 30 | 1017.5 |
| 20260905130724 | 98 | 279 | 2.0 | 5.0 | 0.00 | 0.00 | 0.00 | 26 | 1017.3 |
| 20260905125723 | 98 | 296 | 4.0 | 6.0 | 0.00 | 0.00 | 0.00 | 25 | 1017.4 |
| 20260905124723 | 98 | 268 | 3.0 | 6.0 | 0.00 | 0.00 | 0.00 | 25 | 1017.4 |
| 20260905123719 | 99 | 271 | 4.0 | 10.0 | 0.00 | 0.00 | 0.00 | 25 | 1017.4 |
| 20260905122716 | 100 | 223 | 2.0 | 7.0 | 0.00 | 0.00 | 0.00 | 24 | 1017.5 |
| 20260905121710 | 100 | 226 | 2.0 | 10.0 | 0.00 | 0.00 | 0.00 | 24 | 1017.6 |
| 20260905120708 | 99 | 179 | 4.0 | 12.0 | 0.00 | 0.00 | 0.00 | 23 | 1017.7 |
| 20260905115707 | 100 | 210 | 3.0 | 13.0 | 0.00 | 0.00 | 0.00 | 24 | 1017.7 |
| 20260905114705 | 99 | 251 | 3.0 | 7.0 | 0.00 | 0.00 | 0.00 | 23 | 1017.8 |
| 20260905113708 | 99 | 210 | 3.0 | 11.0 | 0.00 | 0.00 | 0.00 | 24 | 1017.7 |
| 20260905113335 | 99 | 265 | 3.0 | 9.0 | 0.00 | 0.00 | 0.00 | 25 | 1018.0 |
| 20260905111704 | 99 | 283 | 4.0 | 9.0 | 0.00 | 0.00 | 0.00 | 25 | 1018.0 |
| 20260905110708 | 98 | 228 | 2.0 | 11.0 | 0.00 | 0.00 | 0.00 | 25 | 1018.0 |
| 20260905110440 | 97 | 265 | 4.0 | 16.0 | 0.00 | 0.00 | 0.00 | 25 | 1017.9 |
| 20260905104702 | 96 | 283 | 5.0 | 13.0 | 0.00 | 0.00 | 0.00 | 24 | 1018.0 |
| 20260905103702 | 96 | 269 | 7.0 | 12.0 | 0.00 | 0.00 | 0.00 | 26 | 1017.9 |
| 20260905102706 | 96 | 286 | 6.0 | 16.0 | 0.00 | 0.00 | 0.00 | 24 | 1017.7 |
| 20260905101704 | 96 | 288 | 8.0 | 14.0 | 0.00 | 0.00 | 0.00 | 25 | 1017.8 |
| 20260905100703 | 96 | 283 | 3.0 | 14.0 | 0.00 | 0.00 | 0.00 | 27 | 1017.9 |
| 20260905095702 | 96 | 219 | 1.0 | 10.0 | 0.00 | 0.00 | 0.00 | 27 | 1017.9 |
| 20260905094703 | 95 | 278 | 2.0 | 6.0 | 0.00 | 0.00 | 0.00 | 26 | 1018.0 |
| 20260905093704 | 94 | 258 | 3.0 | 7.0 | 0.00 | 0.00 | 0.00 | 27 | 1018.0 |
| 20260905093352 | 94 | 269 | 3.0 | 5.0 | 0.00 | 0.00 | 0.00 | 27 | 1018.0 |
| 20260905091705 | 93 | 207 | 2.0 | 5.0 | 0.00 | 0.00 | 0.00 | 28 | 1017.9 |
| 20260905090705 | 93 | 282 | 3.0 | 4.0 | 0.00 | 0.00 | 0.00 | 28 | 1017.9 |
| 20260905085704 | 92 | 257 | 3.0 | 6.0 | 0.00 | 0.00 | 0.00 | 29 | 1017.6 |
| 20260905084704 | 92 | 212 | 1.0 | 5.0 | 0.00 | 0.00 | 0.00 | 31 | 1017.6 |
| 20260905083703 | 91 | 240 | 3.0 | 5.0 | 0.00 | 0.00 | 0.00 | 30 | 1017.6 |
| 20260905082702 | 90 | 178 | 3.0 | 5.0 | 0.00 | 0.00 | 0.00 | 33 | 1017.6 |
| 20260905081709 | 89 | 165 | 2.0 | 4.0 | 0.00 | 0.00 | 0.00 | 35 | 1017.6 |
| 20260905080704 | 89 | 271 | 2.0 | 6.0 | 0.00 | 0.00 | 0.00 | 32 | 1017.6 |
| 20260905080418 | 88 | 278 | 4.0 | 6.0 | 0.00 | 0.00 | 0.00 | 33 | 1017.4 |
| 20260905074702 | 87 | 272 | 3.0 | 5.0 | 0.00 | 0.00 | 0.00 | 35 | 1017.4 |
| 20260905073703 | 86 | 275 | 3.0 | 9.0 | 0.00 | 0.00 | 0.00 | 36 | 1017.4 |
| 20260905073359 | 86 | 275 | 4.0 | 7.0 | 0.00 | 0.00 | 0.00 | 37 | 1017.4 |
| 20260905072358 | 85 | 271 | 3.0 | 6.0 | 0.00 | 0.00 | 0.00 | 38 | 1017.4 |
| 20260905070655 | 85 | 271 | 2.0 | 6.0 | 0.00 | 0.00 | 0.00 | 40 | 1017.5 |
| 20260905065659 | 84 | 296 | 3.0 | 6.0 | 0.00 | 0.00 | 0.00 | 40 | 1017.5 |
| 20260905064655 | 84 | 281 | 4.0 | 11.0 | 0.00 | 0.00 | 0.00 | 41 | 1017.5 |
| 20260905063656 | 83 | 274 | 4.0 | 9.0 | 0.00 | 0.00 | 0.00 | 41 | 1017.5 |
| 20260905062656 | 83 | 274 | 4.0 | 6.0 | 0.00 | 0.00 | 0.00 | 42 | 1017.4 |
| 20260905061658 | 82 | 302 | 4.0 | 5.0 | 0.00 | 0.00 | 0.00 | 43 | 1017.4 |
| 20260905061333 | 82 | 274 | 2.0 | 4.0 | 0.00 | 0.00 | 0.00 | 44 | 1017.3 |
| 20260905060353 | 81 | 262 | 3.0 | 4.0 | 0.00 | 0.00 | 0.00 | 45 | 1017.3 |
| 20260905054653 | 81 | 278 | 3.0 | 5.0 | 0.00 | 0.00 | 0.00 | 45 | 1017.4 |
| 20260905053655 | 81 | 254 | 2.0 | 5.0 | 0.00 | 0.00 | 0.00 | 45 | 1017.3 |
| 20260905052653 | 81 | 228 | 2.0 | 5.0 | 0.00 | 0.00 | 0.00 | 46 | 1017.4 |
| 20260905051652 | 81 | 290 | 4.0 | 12.0 | 0.00 | 0.00 | 0.00 | 46 | 1017.4 |
| 20260905050653 | 81 | 226 | 4.0 | 7.0 | 0.00 | 0.00 | 0.00 | 46 | 1017.3 |
| 20260905045653 | 81 | 210 | 4.0 | 6.0 | 0.00 | 0.00 | 0.00 | 46 | 1017.2 |
| 20260905044652 | 81 | 259 | 3.0 | 5.0 | 0.00 | 0.00 | 0.00 | 47 | 1017.2 |
| 20260905044328 | 80 | 266 | 4.0 | 5.0 | 0.00 | 0.00 | 0.00 | 48 | 1016.9 |
| 20260905043357 | 80 | 233 | 4.0 | 6.0 | 0.00 | 0.00 | 0.00 | 48 | 1016.8 |
| 20260905041655 | 80 | 265 | 4.0 | 5.0 | 0.00 | 0.00 | 0.00 | 48 | 1016.7 |
| 20260905040650 | 80 | 254 | 3.0 | 7.0 | 0.00 | 0.00 | 0.00 | 47 | 1016.7 |
| 20260905035652 | 80 | 272 | 2.0 | 6.0 | 0.00 | 0.00 | 0.00 | 48 | 1016.7 |
| 20260905034649 | 79 | 248 | 3.0 | 4.0 | 0.00 | 0.00 | 0.00 | 48 | 1016.7 |
| 20260905033654 | 79 | 269 | 2.0 | 4.0 | 0.00 | 0.00 | 0.00 | 49 | 1016.7 |
| 20260905032650 | 80 | 254 | 2.0 | 4.0 | 0.00 | 0.00 | 0.00 | 48 | 1016.7 |
| 20260905031648 | 80 | 289 | 3.0 | 5.0 | 0.00 | 0.00 | 0.00 | 48 | 1016.8 |
| 20260905030649 | 80 | 278 | 3.0 | 5.0 | 0.00 | 0.00 | 0.00 | 49 | 1016.8 |
| 20260905030355 | 79 | 261 | 3.0 | 4.0 | 0.00 | 0.00 | 0.00 | 49 | 1016.8 |
| 20260905024652 | 80 | 269 | 2.0 | 5.0 | 0.00 | 0.00 | 0.00 | 50 | 1016.8 |
| 20260905023648 | 79 | 227 | 2.0 | 4.0 | 0.00 | 0.00 | 0.00 | 51 | 1016.9 |
| 20260905022648 | 80 | 265 | 3.0 | 4.0 | 0.00 | 0.00 | 0.00 | 51 | 1016.8 |
| 20260905021648 | 80 | 268 | 3.0 | 7.0 | 0.00 | 0.00 | 0.00 | 51 | 1016.8 |
| 20260905020648 | 80 | 276 | 3.0 | 4.0 | 0.00 | 0.00 | 0.00 | 52 | 1016.9 |
| 20260905015647 | 79 | 266 | 2.0 | 5.0 | 0.00 | 0.00 | 0.00 | 53 | 1017.1 |
| 20260905014651 | 79 | 240 | 2.0 | 4.0 | 0.00 | 0.00 | 0.00 | 54 | 1017.1 |
| 20260905013647 | 80 | 228 | 2.0 | 5.0 | 0.00 | 0.00 | 0.00 | 52 | 1017.1 |
| 20260905012642 | 80 | 244 | 2.0 | 6.0 | 0.00 | 0.00 | 0.00 | 52 | 1016.9 |
| 20260905011643 | 80 | 234 | 2.0 | 5.0 | 0.00 | 0.00 | 0.00 | 51 | 1017.1 |
| 20260905010644 | 80 | 264 | 2.0 | 5.0 | 0.00 | 0.00 | 0.00 | 51 | 1017.1 |
| 20260905005644 | 80 | 265 | 3.0 | 5.0 | 0.00 | 0.00 | 0.00 | 51 | 1017.1 |
| 20260905004644 | 81 | 278 | 3.0 | 5.0 | 0.00 | 0.00 | 0.00 | 50 | 1017.2 |
| 20260905003639 | 81 | 266 | 3.0 | 5.0 | 0.00 | 0.00 | 0.00 | 50 | 1017.2 |
| 20260905002643 | 80 | 278 | 3.0 | 5.0 | 0.00 | 0.00 | 0.00 | 51 | 1017.4 |
| 20260905001638 | 79 | 269 | 2.0 | 6.0 | 0.00 | 0.00 | 0.00 | 52 | 1017.3 |
| 20260905000636 | 79 | 228 | 3.0 | 9.0 | 0.00 | 0.00 | 0.00 | 52 | 1017.5 |
| 20260904235634 | 79 | 231 | 2.0 | 7.0 | 0.00 | 0.00 | 0.00 | 52 | 1017.5 |
| 20260904235201 | 79 | 223 | 3.0 | 10.0 | 0.00 | 0.00 | 0.00 | 49 | 1017.7 |
| 20260904234807 | 79 | 193 | 3.0 | 7.0 | 0.00 | 0.00 | 0.00 | 51 | 1017.6 |
| 20260904232634 | 80 | 226 | 1.0 | 7.0 | 0.00 | 0.00 | 0.00 | 49 | 1017.8 |
| 20260904231632 | 79 | 275 | 3.0 | 5.0 | 0.00 | 0.00 | 0.00 | 49 | 1017.9 |
| 20260904230633 | 78 | 276 | 1.0 | 3.0 | 0.00 | 0.00 | 0.00 | 47 | 1017.9 |
| 20260904225631 | 79 | 212 | 2.0 | 4.0 | 0.00 | 0.00 | 0.00 | 47 | 1017.8 |
| 20260904224808 | 79 | 254 | 4.0 | 5.0 | 0.00 | 0.00 | 0.00 | 44 | 1017.9 |
| 20260904224751 | 80 | 196 | 3.0 | 6.0 | 0.00 | 0.00 | 0.00 | 44 | 1018.0 |
| 20260904224655 | 80 | 248 | 1.0 | 9.0 | 0.00 | 0.00 | 0.00 | 45 | 1017.9 |
| 20260904221626 | 79 | 271 | 3.0 | 4.0 | 0.00 | 0.00 | 0.00 | 44 | 1017.8 |
| 20260904220628 | 79 | 269 | 3.0 | 4.0 | 0.00 | 0.00 | 0.00 | 45 | 1017.9 |
| 20260904215624 | 78 | 268 | 3.0 | 5.0 | 0.00 | 0.00 | 0.00 | 48 | 1017.9 |
| 20260904215100 | 78 | 255 | 2.0 | 3.0 | 0.00 | 0.00 | 0.00 | 51 | 1017.9 |
| 20260904214739 | 78 | 254 | 2.0 | 3.0 | 0.00 | 0.00 | 0.00 | 49 | 1017.9 |
| 20260904212626 | 78 | 262 | 1.0 | 3.0 | 0.00 | 0.00 | 0.00 | 53 | 1017.9 |